{"data":{"norad_id":69949,"intl_designator":"2026-157G","name":"STARLINK-37923","alt_names":[],"object_type":"PAYLOAD","status":"ACTIVE","operator":null,"country":"US","launch_date":"2026-07-09","launch_site_code":"AFETR","launch_vehicle":null,"mission":null,"orbit_class":"UNKNOWN","rcs_meters":null,"size_class":null,"mass_kg":null,"dimensions":null,"purposes":["comms"],"wikipedia_slug":null,"has_3d_model":false,"image_url":null,"decayed_at":null,"tle_current":{"epoch":"2026-09-20T04:57:31.363200Z","epoch_age_seconds":43153,"freshness":"FRESH","line1":"1 69949U 26157G   26263.20661300  .00027177  00000+0  81216-3 0  9999","line2":"2 69949  53.1587 335.4077 0001404  76.4201 283.6958 15.34415884 11327","mean_motion":15.34415884,"eccentricity":0.0001404,"inclination_deg":53.1587,"raan_deg":335.4077,"arg_perigee_deg":76.4201,"mean_anomaly_deg":283.6958,"bstar":0.00081216,"rev_number":1132,"period_min":93.846786586054,"perigee_km":461.69558267755,"apogee_km":463.61647736038,"semimajor_km":6840.793030019,"source":"CELESTRAK","updated_at":"2026-09-20T09:00:44.299952Z"}}}